Weather History for Hutchinson, MN

Change the Weather History Date:

Monday, November 17, 2014

  Actual Average Record
Temperature  
Mean Temperature 10 °F -  
Max Temperature 15 °F 40 °F 69 °F (2001)
Min Temperature 6 °F 24 °F -4 °F (1959)
Degree Days  
Heating Degree Days 54    
Moisture  
Dew Point 5 °F    
Average Humidity 78    
Maximum Humidity 87    
Minimum Humidity 68    
Precipitation  
Precipitation 0.00 in - - ()
Sea Level Pressure  
Sea Level Pressure 29.99 in    
Wind  
Wind Speed 17 mph (WNW)    
Max Wind Speed 26 mph    
Max Gust Speed 34 mph    
Visibility 8 miles    
Events Snow    
Averages and records for this station are not official NWS values.
T = Trace of Precipitation, MM = Missing Value Source: NWS Daily Summary

Daily Weather History Graph

Daily Weather History Graph

Search for Another Location

Airport:

Trip Planner

Search our weather history database for the weather conditions in past years. The results will help you decide how hot, cold, wet, or windy it might be!

Date:

Astronomy

Nov. 17, 2014 Rise Set
Actual Time 7:17 AM CST 4:47 PM CST
Civil Twilight 6:45 AM CST 5:18 PM CST
Nautical Twilight 6:10 AM CST 5:54 PM CST
Astronomical Twilight 5:35 AM CST 6:29 PM CST
Moon 2:07 AM CST (11/17) 2:22 PM CST (11/17)
Length of Visible Light 10h 33m
Length of Day
9h 29m
Waning Crescent, 22% of the Moon is Illuminated
Nov 17
Waning Crescent
Nov 22
New
Nov 29
First Quarter
Dec 6
Full
Dec 14
Last Quarter

Hourly Weather History & Observations

Time (CST) Temp. Windchill Dew Point Humidity Pressure Visibility Wind Dir Wind Speed Gust Speed Precip Events Conditions
8:22 AM 6.8 °F -11.3 °F 3.2 °F 85% 29.94 in 2.5 mi West 16.1 mph - N/A   Mist
8:33 AM 7.3 °F -10.0 °F 3.2 °F 83% 29.94 in 4.0 mi West 15.0 mph - N/A   Clear
8:52 AM 8.2 °F -9.4 °F 3.9 °F 83% 29.94 in 5.0 mi West 16.1 mph - N/A   Clear
9:12 AM 9.3 °F -8.6 °F 4.3 °F 80% 29.94 in 7.0 mi West 17.3 mph 23.0 mph N/A   Clear
9:32 AM 10.4 °F -7.2 °F 4.5 °F 77% 29.94 in 4.0 mi West 17.3 mph 25.3 mph N/A   Haze
9:53 AM 10.9 °F -7.5 °F 5.4 °F 78% 29.94 in 2.5 mi West 19.6 mph 25.3 mph N/A   Haze
10:12 AM 11.7 °F -5.5 °F 6.6 °F 80% 29.94 in 3.0 mi WNW 17.3 mph 23.0 mph N/A   Haze
10:33 AM 12.0 °F -8.1 °F 4.8 °F 73% 29.94 in 5.0 mi WNW 25.3 mph 32.2 mph N/A   Haze
10:52 AM 12.2 °F -8.2 °F 3.4 °F 68% 29.94 in 0.2 mi NW 26.5 mph 34.5 mph N/A Snow Light Snow
11:11 AM 12.4 °F -5.6 °F 5.9 °F 75% 29.95 in 3.0 mi WNW 19.6 mph 26.5 mph N/A   Haze
11:33 AM 12.9 °F -5.3 °F 6.1 °F 74% 29.94 in 3.0 mi NW 20.7 mph 26.5 mph N/A   Haze
11:52 AM 14.0 °F -5.1 °F 5.9 °F 70% 29.94 in 4.0 mi WNW 24.2 mph 29.9 mph N/A   Haze
12:12 PM 13.5 °F -5.8 °F 4.8 °F 68% 29.94 in 5.0 mi NW 24.2 mph 32.2 mph N/A   Haze
12:33 PM 13.8 °F -2.2 °F 5.9 °F 71% 29.94 in 4.0 mi WNW 16.1 mph 32.2 mph N/A   Haze
12:53 PM 13.8 °F -5.3 °F 6.1 °F 71% 29.94 in 5.0 mi NW 24.2 mph 28.8 mph N/A   Haze
1:12 PM 14.2 °F -4.5 °F 5.7 °F 69% 29.94 in 7.0 mi WNW 23.0 mph 32.2 mph N/A   Overcast
1:32 PM 14.5 °F -2.7 °F 7.5 °F 74% 29.95 in 5.0 mi WNW 19.6 mph 27.6 mph N/A   Haze
1:52 PM 14.7 °F -2.0 °F 7.3 °F 73% 29.95 in 10.0 mi WNW 18.4 mph 25.3 mph N/A   Overcast
2:13 PM 15.6 °F -1.3 °F 7.9 °F 72% 29.96 in 10.0 mi NW 19.6 mph 23.0 mph N/A   Overcast
2:32 PM 15.4 °F -2.0 °F 8.6 °F 74% 29.97 in 10.0 mi WNW 20.7 mph 24.2 mph N/A   Mostly Cloudy
2:53 PM 15.8 °F -0.6 °F 8.6 °F 73% 29.97 in 10.0 mi WNW 18.4 mph 28.8 mph N/A   Mostly Cloudy
3:13 PM 15.6 °F -0.4 °F 7.7 °F 71% 29.98 in 10.0 mi WNW 17.3 mph 24.2 mph N/A   Scattered Clouds
3:32 PM 14.9 °F -1.3 °F 8.6 °F 76% 29.99 in 7.0 mi WNW 17.3 mph 25.3 mph N/A   Scattered Clouds
3:53 PM 14.0 °F -3.0 °F 7.7 °F 76% 30.00 in 7.0 mi West 18.4 mph 27.6 mph N/A   Scattered Clouds
4:11 PM 13.3 °F -3.9 °F 7.7 °F 78% 30.01 in 10.0 mi West 18.4 mph 24.2 mph N/A   Clear
4:32 PM 12.2 °F -4.8 °F 7.2 °F 80% 30.01 in 10.0 mi WNW 17.3 mph 24.2 mph N/A   Clear
4:53 PM 11.8 °F -3.6 °F 5.4 °F 75% 30.02 in 10.0 mi West 13.8 mph 19.6 mph N/A   Clear
5:12 PM 11.3 °F -4.9 °F 5.4 °F 77% 30.02 in 10.0 mi WNW 15.0 mph 20.7 mph N/A   Clear
5:32 PM 11.1 °F -5.7 °F 5.9 °F 80% 30.02 in 10.0 mi West 16.1 mph 24.2 mph N/A   Clear
5:52 PM 11.1 °F -4.5 °F 5.9 °F 80% 30.03 in 10.0 mi WNW 13.8 mph 21.9 mph N/A   Clear
6:13 PM 10.8 °F -5.0 °F 5.9 °F 81% 30.04 in 10.0 mi West 13.8 mph 19.6 mph N/A   Clear
6:33 PM 10.4 °F -6.6 °F 5.4 °F 80% 30.03 in 10.0 mi WNW 16.1 mph 23.0 mph N/A   Clear
6:51 PM 10.2 °F -5.7 °F 4.8 °F 79% 30.04 in 10.0 mi West 13.8 mph - N/A   Clear
7:13 PM 9.9 °F -5.5 °F 4.5 °F 79% 30.04 in 10.0 mi West 12.7 mph - N/A   Clear
7:33 PM 9.1 °F -6.4 °F 4.3 °F 81% 30.04 in 10.0 mi WNW 12.7 mph 18.4 mph N/A   Clear
7:52 PM 9.1 °F -4.0 °F 4.5 °F 81% 30.04 in 10.0 mi West 9.2 mph 16.1 mph N/A   Clear
8:13 PM 7.7 °F -8.2 °F 4.5 °F 87% 30.04 in 10.0 mi West 12.7 mph - N/A   Clear
8:32 PM 7.7 °F -7.4 °F 3.7 °F 84% 30.04 in 10.0 mi West 11.5 mph - N/A   Clear
8:53 PM 8.2 °F -7.5 °F 3.9 °F 83% 30.03 in 10.0 mi West 12.7 mph - N/A   Scattered Clouds
9:12 PM 8.2 °F -6.8 °F 3.9 °F 83% 30.03 in 10.0 mi West 11.5 mph - N/A   Clear
9:32 PM 8.1 °F -7.7 °F 4.1 °F 84% 30.03 in 10.0 mi West 12.7 mph - N/A   Clear
9:53 PM 7.7 °F -8.9 °F 4.1 °F 85% 30.03 in 10.0 mi West 13.8 mph - N/A   Clear
10:12 PM 7.7 °F -8.9 °F 4.1 °F 85% 30.03 in 10.0 mi West 13.8 mph - N/A   Scattered Clouds
10:33 PM 9.0 °F -5.9 °F 5.5 °F 86% 30.03 in 10.0 mi West 11.5 mph - N/A   Mostly Cloudy
10:52 PM 8.6 °F -7.7 °F 5.4 °F 87% 30.02 in 10.0 mi West 13.8 mph - N/A   Scattered Clouds
11:13 PM 8.1 °F -6.2 °F 4.5 °F 85% 30.02 in 10.0 mi West 10.4 mph - N/A   Clear
11:32 PM 7.2 °F -8.9 °F 3.9 °F 87% 30.02 in 10.0 mi West 12.7 mph - N/A   Clear
11:53 PM 7.5 °F -8.4 °F 4.1 °F 86% 30.02 in 10.0 mi West 12.7 mph - N/A   Clear